Погода в Троицком

Россия / Республика Хакасия     54°16′51″N   91°05′28″E
темп.,
°C
ветер,
м/с
пор.,
м/с
влажн.,
%
обл.,
%
осадки,
мм/ч
давл.,
гПа
погр.,
м
6 марта, сб
сб601:00−8ю357358 0.0 102465
04:00−9ю3478100 0.0 102273
07:00−9ю3479100 0.0 102358
10:00−6ю3782100 0.0 1023290
13:00−2ююз5969100 0.0 1021999
16:000ю41076100 0.0 1018691
19:00−4ююз4570100 0.0 101673
22:00−5ю3472100 0.0 101659
7 марта, вс
вс701:00−6ю4473100 0.0 101566
04:00−7ю4479100 0.0 101567
07:00−7ю3481100 0.0 101668
10:00−5ю3684100 0.0 1016196
13:000юз2476100 0.0 1017593
16:000сз2583100 0.0 1018716
19:00−4з2379100 0.1 102035
22:00−8з237573 0.0 102221
8 марта, пн
пн801:00−9зсз118182 0.0 102421
04:00−11в1185100 0.0 102521
07:00−12юв119198 0.0 102521
10:00−9юв239246 0.0 1022126
13:00−5юв369049 0.0 1018316
16:00−3юв3590100 0.0 1015271
19:00−6ююв2288100 0.0 101426
22:00−6ю3381100 0.0 101448
9 марта, вт
вт901:00−2ююз4871100 0.0 1013188
04:00−5ююз347867 0.0 101538
07:00−6юз337779 0.0 101922
10:00−4ююз2481100 0.0 1022179
13:00−2з4966100 0.0 10231338
16:00−3зсз496992 0.0 1024568
19:00−8з336646 0.0 102626
22:00−11ююз12660 0.0 102821
10 марта, ср
ср1001:00−13ююв11729 0.0 102621
04:00−14ююв127423 0.0 102421
07:00−13ююв228343 0.0 102222
10:00−8юв249035 0.0 1019131
13:00−4вюв349231 0.0 1016243
16:00−2юв349129 0.0 1015226
19:00−6ююв239133 0.0 101524
22:00−6ююв1290100 0.0 101522